Meteo Giornale » Osservazioni meteo Germania » Colonia-Bonn
ore: 02:50 - Osservazioni Meteo Colonia-Bonn
Lat. 50° 52' N Lon. 7° 10' E Alt. 91 metri s.l.m.
12 °C
Foschia
Temp. 24 Ore
12 °C
23 °C
Nord
3.7 Km/h
Dew point 12 °C
Umidità 100 %
Visibilità 3 Km
Il sole sorge alle ore 06:46
Il sole tramonta alle ore 20:15
| Data e Ora | Cielo e Fenomeni | T °C | DP °C | Um. % | Pres. hPa | Vis. km | Vento km/h | |
|---|---|---|---|---|---|---|---|---|
| Oggi h: 02:50 | Foschia | 12 | 12 | 100 | 1021 | 3 | N 3.7 | |
| Oggi h: 02:20 | Sereno | 12 | 12 | 100 | 1021 | 10 | N 3.7 | |
| Oggi h: 01:50 | Sereno | 12 | 12 | 100 | 1020 | 10 | N 1.8 | |
| Oggi h: 01:20 | Poco Nuvoloso | 12 | 12 | 100 | 1021 | 10 | N 5.5 | |
| Oggi h: 00:50 | Sereno | 13 | 13 | 100 | 1021 | 10 | N 1.8 | |
| Oggi h: 00:20 | Sereno | 13 | 13 | 100 | 1021 | 10 | N 5.5 | |
| Ieri h: 23:50 | Sereno | 13 | 13 | 100 | 1021 | 10 | N 5.5 | |
| Ieri h: 23:20 | Sereno | 13 | 13 | 100 | 1021 | 10 | N 1.8 | |
| Ieri h: 22:50 | Sereno | 13 | 13 | 100 | 1021 | 10 | N 3.7 | |
| Ieri h: 22:20 | Sereno | 14 | 13 | 93 | 1021 | 10 | N 3.7 | |
| Ieri h: 21:50 | Sereno | 15 | 13 | 87 | 1021 | 10 | N 1.8 | |
| Ieri h: 21:20 | Sereno | 15 | 13 | 87 | 1021 | 10 | N 3.7 | |
| Ieri h: 20:50 | Sereno | 17 | 14 | 82 | 1021 | 10 | N 5.5 | |
| Ieri h: 20:20 | Sereno | 18 | 14 | 77 | 1020 | 10 | N 5.5 | |
| Ieri h: 19:50 | Sereno | 19 | 14 | 72 | 1020 | 10 | N 5.5 | |
| Ieri h: 19:20 | Sereno | 20 | 14 | 68 | 1020 | 10 | N 9.3 | |
| Ieri h: 18:50 | Poco Nuvoloso | 21 | 14 | 64 | 1020 | 10 | N/NO 13 | |
| Ieri h: 18:20 | Poco Nuvoloso | 22 | 13 | 56 | 1020 | 10 | NO 14.8 | |
| Ieri h: 17:50 | Poco Nuvoloso | 22 | 13 | 56 | 1020 | 10 | O/NO 14.8 | |
| Ieri h: 17:20 | Nuvoloso | 23 | 13 | 53 | 1020 | 10 | O/SO 13 | |
| Ieri h: 16:50 | Poco Nuvoloso | 22 | 13 | 56 | 1020 | 10 | N 13 | |
| Ieri h: 16:20 | Nuvoloso | 22 | 13 | 56 | 1020 | 10 | NO 27.8 | |
| Ieri h: 15:50 | Sereno | 21 | 13 | 60 | 1020 | 10 | O/NO 14.8 | |
| Ieri h: 15:20 | Sereno | 21 | 13 | 60 | 1020 | 10 | O/NO 20.3 | |
| Ieri h: 14:50 | Poco Nuvoloso | 20 | 12 | 59 | 1020 | 10 | O/NO 24 | |
| Ieri h: 14:20 | Pioggia nelle vicinanze | 21 | 13 | 60 | 1020 | 10 | O 20.3 | |
| Ieri h: 13:50 | Nuvoloso | 22 | 14 | 60 | 1020 | 10 | O/NO 16.7 | |
| Ieri h: 13:20 | Pioggia | 20 | 15 | 72 | 1020 | 10 | O 9.3 | |
| Ieri h: 12:50 | Pioggia nelle vicinanze | 21 | 14 | 64 | 1020 | 10 | N 5.5 | |
| Ieri h: 12:20 | Pioggia | 19 | 15 | 77 | 1020 | 10 | N 5.5 | |
| Ieri h: 11:50 | Pioggia nelle vicinanze | 19 | 14 | 72 | 1021 | 10 | S 9.3 | |
| Ieri h: 11:20 | Molto Nuvoloso | 19 | 14 | 72 | 1021 | 10 | S/SO 7.4 | |
| Ieri h: 10:50 | Molto Nuvoloso | 18 | 14 | 77 | 1020 | 10 | S 9.3 | |
| Ieri h: 10:20 | Coperto | 18 | 14 | 77 | 1020 | 10 | S/SE 11.1 | |
| Ieri h: 09:50 | Molto Nuvoloso | 17 | 14 | 82 | 1020 | 10 | S/SE 11.1 | |
| Ieri h: 09:20 | Molto Nuvoloso | 17 | 13 | 77 | 1020 | 10 | S 9.3 | |
| Ieri h: 08:50 | Coperto | 16 | 13 | 82 | 1020 | 10 | S 7.4 | |
| Ieri h: 08:20 | Coperto | 16 | 13 | 82 | 1020 | 10 | S 9.3 | |
| Ieri h: 07:50 | Coperto | 15 | 13 | 87 | 1020 | 10 | S 13 | |
| Ieri h: 07:20 | Coperto | 15 | 13 | 87 | 1019 | 10 | S 11.1 | |
| Ieri h: 06:50 | Coperto | 15 | 13 | 87 | 1019 | 10 | S/SE 11.1 | |
| Ieri h: 06:20 | Coperto | 15 | 13 | 87 | 1019 | 10 | S/SE 11.1 | |
| Ieri h: 05:50 | Molto Nuvoloso | 15 | 13 | 87 | 1019 | 10 | S/SE 11.1 | |
| Ieri h: 05:20 | Molto Nuvoloso | 14 | 13 | 93 | 1019 | 10 | SE 7.4 | |
| Ieri h: 04:50 | Molto Nuvoloso | 15 | 13 | 87 | 1019 | 10 | SE 7.4 | |
| Ieri h: 04:20 | Coperto | 14 | 13 | 93 | 1019 | 10 | S 7.4 | |
| Ieri h: 03:50 | Molto Nuvoloso | 13 | 13 | 100 | 1019 | 10 | N 1.8 | |



